If you wish to contribute or participate in the discussions about articles you are invited to join SKYbrary as a registered user

 Actions

Anaktuvuk Pass Airport

From SKYbrary Wiki

PAKP
Airport
ICAO: PAKP – IATA: AKP
Summary
Name Anaktuvuk Pass Airport
Region North America
Territory Alaska US.gif
Location Anaktuvuk Pass, Alaska
Serving Anaktuvuk Pass
Elevation 640.69 m
2,102 ft
2,102 ft640.69 m
Type medium airport
Coordinates 68° 8' 0.96" N, 151° 44' 34.80" W
Runways
Designator Length Width Surface ROPS
2/20 1463 m4,799.869 ft
30 m98.425 ft
GRAVEL-G /


METAR
Observation PAKP 061356Z AUTO 00000KT 10SM CLR 06/04 A2990 RMK AO2 SLP149 T00560039
Station Anaktuvuk Pass, Anaktuvuk Pass Airport
Date/Time 06 June 2020 13:56:00
Wind direction
Wind speed 00 kts
Lowest cloud amount n/a
Temperature 5.6°C
Dew point 3.9°C
Humidity 88%
QNH hPa
Weather condition n/a

Maps

Terrain

Loading map...

Airport Layout

Loading map...


Accidents & Serious Incidents at or in vicinity of PAKP

None on SKYbrary